Tracking 30685 objects as of 17-Jun-2025
HD Live streaming from Space Station
objects crossing your sky now

NOAA 16 DEB

Track NOAA 16 DEB now!
10-day predictions


NORAD ID: 41244
Int'l Code: 2000-055EU
Perigee: 781.3 km
Apogee: 793.7 km
Inclination: 99.0 °
Period: 100.5 minutes
Semi major axis: 7158 km
RCS: Unknown
Launch date: September 21, 2000
Source: United States (US)
Launch site: AIR FORCE WESTERN TEST RANGE (AFWTR)

Note: This is SATELLITE DEBRIS
Your satellite tracking list
Your tracking list is empty




NASA's NSSDC Master Catalog

Two Line Element Set (TLE):
1 41244U 00055EU  25166.65585154  .00003775  00000-0  13840-2 0  9994
2 41244  99.0262 319.5983 0008649 343.1999  16.8896 14.33419506488710
Source of the keplerian elements: AFSPC